User: anonymous   Login
Location: Mentone
(34.5413°N, 85.5351°W)
Time: 17:10:02
(UTC-05:00)
Language:

AO-Echo - Orbit

View from above orbital plane
View from above orbital plane
View from above satellite
View from above satellite

Ground track
Ground track

The orbit data is extracted from the following two-line orbital elements,

1 28375U 04025K   17081.82726122 +.00000010 +00000-0 +16013-4 0  9999
2 28375 098.3534 017.1065 0082417 183.0882 176.9809 14.41829072669314
Epoch (UTC): 22 March 2017 19:51:15
Eccentricity: 0.0082417
inclination: 98.3534°
perigee height: 693 km
apogee height: 811 km
right ascension of ascending node: 17.1065°
argument of perigee: 183.0882°
revolutions per day: 14.41829072
mean anomaly at epoch: 176.9809°
orbit number at epoch: 66931

The dashed part of the orbit path shows where the satellite is in the earth's shadow,  

DLR